STARLINK-4666

operational
NORAD ID: 53789 Int'l Des: 2022-111 Owner: SPXS Country: US Constellation: starlink
LEOCIRCULAR

Über STARLINK-4666

Beschreibung wird geladen...

Live-Position

3D-Globus wird geladen...

Nächste Überflüge

Höhenverlauf

Altitude vs Time

uPlot chart will show altitude changes over time

Zweizeiliger Elementsatz

1 53789U 22111S 25251.61931891 .00055945 00000-0 35043-2 0 9997
2 53789 53.2186 11.1872 0001329 82.0805 278.0338 15.08852248166206
Epoch: 8. Sept. 2025 • Age: 19 hours

Aktueller Status

Höhe 543.0 km
Geschwindigkeit 7.60 km/s
Subsatellitenpunkt 43.81°N, 88.69°W
Startdatum 11. Sept. 2022
Alter 2.9 years
Typ internet

Technische Details

Klassifizierung Payload
Masse 305.00 kg
Trockenmasse 290.00 kg
Gesamtmasse 305.00 kg
Länge 0.20 m
Durchmesser 2.80 m
Spannweite 9.00 m
Form Box + pan
Hersteller SPXS
Bus-Typ Starlink
Phasenstatus In Orbit
Besitzer/Staat SPXS/US

Große Konstellationen

Loading constellations...